DECAYED

RESURS P1 DEB, 60225 (Decayed)

Orbit data source: Space-Track

RESURS P1 DEB, 60225 was space debris in LEO originally from a Commonwealth of Independent States-origin launch on Tue, 25 Jun 2013 UTC launched from the Tyuratam Missile And Space Complex (TTMTR). Debris objects in space refer to the collection of defunct objects orbiting the Earth. Examples of debris include non-operational satellites, rocket bodies, and fragments generated from explosions, collisions, or faulty payload assembly.

Not visible in the next 10 days
Identifier
60225, 2013-030P
Orbit
Decayed
Country
Flag of CISCIS
Related business
Manufacturer
TSSKBP?
Mission
Decayed spacecraft
Bus & Motor
Unknown
Mass
Unknown
Launch date (UTC)
2013-06-25 (12 years ago)
Launch vehicle
Unknown
Launch site
Tyuratam Missile And Space Complex (TTMTR)
Object type
Payload
Rocket body
Debris
Shape & HBR
Unknown
Radar Cross Section
Small (<0.1 m²)

Expand to show TLE details & history
Last TLE update: 1 year ago

TLE from 1 year ago
0 RESURS P1 DEB
1 60225U 13030P   24209.39050849  .11687150  22258-5  21757-2 0  9994
2 60225  96.9385 259.7880 0018364 269.5974  90.3218 16.31687613  4582
Epoch: 2024-07-27T09:22Z
TLE epoch observation values (Epoch: 2024-07-27T09:22:19.933Z)
Latitude
-0.00003°
Longitude
173.65276°
Altitude
191.352 km
Speed
7.791 km/s
True Right ascension
17h 19m 09s
True Declination
0° 00' 00"
Sunlit
Object was in full shadow at epoch
Visualization orbit readout
Latitude
Unknown
Longitude
Unknown
Altitude
Unknown
Speed
Unknown
Apparent Right ascension
Unknown
Apparent Declination
Unknown
Sunlit
N/A
Visualization observer readout
Local Sidereal Time
00:03:09
Azimuth
Unknown
Elevation
Unknown
Doppler factor
Unknown
Orbital elements
Apogee altitude
196.859 km
Perigee altitude
172.755 km
Semi-major axis
6,562.944 km
Eccentricity
0.00184
Inclination
96.9385°
RAAN
259.788°
Arg. of periapsis
269.5974°
True anomaly
90.53223°
Mean anomaly
90.3218°
Eccentric anomaly
90.42702°
Mean motion
4.08221 °/min
Orbital period
88.19 mins
BSTAR
0.0021757
Loading maneuver chart data...
Computing Atmospheric mass density...

Documentation

Showing up to 5 results
|